FW9155 Weather Reports


time (UTC)temp
C
wind
direction
speed
KPH
gust
KPH
rain 1hr
cm
rain 24hr
cm
rain mn
cm
humidity
%
barometer
mb
20260505083647 13 59 24.1 38.6 0.00 0.13 0.13 76 1005.7
20260505083151 13 58 25.7 45.1 0.05 0.13 0.13 75 1005.6
20260505082633 13 69 24.1 45.1 0.13 0.13 0.13 76 1005.4
20260505082135 13 57 20.9 43.5 0.13 0.13 0.13 78 1005.3
20260505081619 13 40 17.7 37.0 0.13 0.13 0.13 80 1005.7
20260505081120 13 45 14.5 25.7 0.13 0.13 0.13 82 1005.9
20260505080619 13 55 16.1 27.4 0.13 0.13 0.13 83 1005.7
20260505080058 13 5 17.7 30.6 0.13 0.13 0.13 84 1005.6
20260505075555 14 37 19.3 33.8 0.13 0.13 0.13 84 1005.7
20260505075058 14 59 16.1 33.8 0.13 0.13 0.13 84 1005.6
20260505074759 15 65 11.3 27.4 0.13 0.13 0.13 86 1005.5
20260505074036 15 44 8.0 22.5 0.13 0.13 0.13 85 1005.6
20260505073737 15 33 12.9 20.9 0.10 0.10 0.10 84 1005.7
20260505072953 15 83 16.1 24.1 0.05 0.05 0.05 83 1005.1
20260505072430 15 93 16.1 29.0 0.00 0.00 0.00 82 1004.4
20260505071912 16 71 14.5 29.0 0.00 0.00 0.00 81 1004.7
20260505071410 16 51 17.7 30.6 0.00 0.00 0.00 80 1004.8
20260505070847 16 44 19.3 30.6 0.00 0.00 0.00 78 1004.5
20260505070340 16 65 16.1 29.0 0.00 0.00 0.00 78 1004.5
20260505070040 16 46 16.1 29.0 0.00 0.00 0.00 77 1005.1
20260505065535 17 43 19.3 30.6 0.00 0.00 0.00 76 1004.8
20260505064814 17 52 19.3 38.6 0.00 0.00 0.00 75 1004.7
20260505064249 18 67 17.7 38.6 0.00 0.00 0.00 77 1004.4
20260505064012 18 39 11.3 24.1 0.00 0.00 0.00 78 1004.4
20260505063241 19 35 4.8 22.5 0.00 0.00 0.00 81 1004.4
20260505062718 19 5 3.2 8.0 0.00 0.00 0.00 82 1004.3
20260505062216 19 17 1.6 8.0 0.00 0.00 0.00 82 1004.1
20260505061716 19 5 1.6 9.7 0.00 0.00 0.00 82 1004.0
20260505061211 19 5 1.6 9.7 0.00 0.00 0.00 82 1003.8
20260505060934 19 76 1.6 4.8 0.00 0.00 0.00 82 1003.7
20260505060142 19 37 8.0 27.4 0.00 0.00 0.00 83 1003.7
20260505055639 18 44 4.8 27.4 0.00 0.00 0.00 83 1003.4
20260505055135 18 28 1.6 9.7 0.00 0.00 0.00 83 1003.8
20260505054632 18 58 3.2 8.0 0.00 0.00 0.00 82 1003.8
20260505054106 19 355 1.6 6.4 0.00 0.00 0.00 81 1003.8
20260505053756 19 355 1.6 3.2 0.00 0.00 0.00 80 1003.8
20260505053040 19 103 1.6 3.2 0.00 0.00 0.00 80 1003.4
20260505052739 19 126 1.6 8.0 0.00 0.00 0.00 79 1003.1
20260505052009 19 144 1.6 8.0 0.00 0.00 0.00 79 1003.2
20260505051503 20 160 1.6 3.2 0.00 0.00 0.00 79 1003.0
20260505051001 20 120 1.6 3.2 0.00 0.00 0.00 79 1003.0
20260505050433 20 90 1.6 6.4 0.00 0.00 0.00 78 1003.0
20260505041758 21 130 8.0 19.3 0.00 0.00 0.00 75 1002.7
20260505041516 21 165 9.7 19.3 0.00 0.00 0.00 75 1002.7
20260505041008 21 132 9.7 19.3 0.00 0.00 0.00 74 1002.5
20260505040248 21 132 6.4 17.7 0.00 0.00 0.00 74 1002.6
20260505035720 21 117 6.4 12.9 0.00 0.00 0.00 73 1002.8
20260505035441 22 128 4.8 14.5 0.00 0.00 0.00 72 1003.1
20260505034652 22 136 4.8 17.7 0.00 0.00 0.00 72 1003.2
20260505034151 22 131 4.8 17.7 0.00 0.00 0.00 71 1003.3
20260505033845 22 96 4.8 19.3 0.00 0.00 0.00 71 1003.3
20260505033123 22 159 8.0 24.1 0.00 0.00 0.00 71 1003.1
20260505032610 22 107 11.3 24.1 0.00 0.00 0.00 71 1003.1
20260505032112 22 123 12.9 25.7 0.00 0.00 0.00 71 1003.2
20260505031546 22 136 14.5 25.7 0.00 0.00 0.00 70 1003.5
20260505031045 22 161 11.3 24.1 0.00 0.00 0.00 70 1003.6
20260505030520 22 127 9.7 17.7 0.00 0.00 0.00 69 1003.6
20260505030017 22 157 9.7 17.7 0.00 0.00 0.00 69 1003.8
20260505025509 22 167 6.4 17.7 0.00 0.00 0.00 69 1003.6
20260505025011 22 165 6.4 17.7 0.00 0.00 0.00 69 1003.5
20260505024447 22 155 3.2 17.7 0.00 0.00 0.00 68 1003.6
20260505023921 22 142 4.8 17.7 0.00 0.00 0.00 68 1003.5
20260505023648 23 130 4.8 17.7 0.00 0.00 0.00 67 1003.6
20260505022921 23 183 3.2 14.5 0.00 0.00 0.00 67 1003.6
20260505022612 23 163 1.6 14.5 0.00 0.00 0.00 66 1003.7
20260505021830 23 158 3.2 12.9 0.00 0.00 0.00 66 1003.5
20260505021307 23 137 3.2 12.9 0.00 0.00 0.00 66 1003.4
20260505020745 23 185 4.8 17.7 0.00 0.00 0.00 65 1003.2
20260505020447 23 169 6.4 20.9 0.00 0.00 0.00 65 1003.0
20260505015934 23 178 9.7 20.9 0.00 0.00 0.00 64 1002.7
20260505015209 23 165 11.3 20.9 0.00 0.00 0.00 64 1002.6
20260505014710 23 163 11.3 20.9 0.00 0.00 0.00 63 1002.4
20260505014209 23 146 11.3 22.5 0.00 0.00 0.00 63 1002.0
20260505013640 23 169 11.3 22.5 0.00 0.00 0.00 62 1002.2
20260505013142 23 135 6.4 17.7 0.00 0.00 0.00 62 1002.2
20260505012621 23 153 6.4 17.7 0.00 0.00 0.00 61 1002.2
20260505012120 23 140 4.8 17.7 0.00 0.00 0.00 61 1002.3
20260505011558 23 164 6.4 16.1 0.00 0.00 0.00 60 1002.2
20260505011033 24 119 8.0 19.3 0.00 0.00 0.00 59 1002.2
20260505010511 24 129 9.7 27.4 0.00 0.00 0.00 59 1002.2
20260505010231 24 143 9.7 27.4 0.00 0.00 0.00 59 1002.0
20260505005510 24 183 9.7 20.9 0.00 0.00 0.00 58 1001.9
20260505005011 24 155 9.7 20.9 0.00 0.00 0.00 57 1001.9
20260505004445 25 144 9.7 19.3 0.00 0.00 0.00 57 1001.9
20260505003940 25 171 9.7 20.9 0.00 0.00 0.00 56 1001.9
20260505003435 25 173 8.0 20.9 0.00 0.00 0.00 56 1002.0
20260505002912 25 206 8.0 17.7 0.00 0.00 0.00 56 1002.2
20260505002346 25 157 9.7 24.1 0.00 0.00 0.00 55 1002.2
20260505002041 25 162 11.3 24.1 0.00 0.00 0.00 54 1002.3
20260505001251 25 187 11.3 22.5 0.00 0.00 0.00 54 1002.4
20260505000748 25 157 12.9 24.1 0.00 0.00 0.00 54 1002.3
20260505000219 25 180 14.5 27.4 0.00 0.00 0.00 53 1002.4
20260504235717 25 167 16.1 27.4 0.00 0.00 0.00 53 1002.4
20260504235213 25 152 16.1 29.0 0.00 0.00 0.00 53 1002.3
20260504234934 25 160 16.1 30.6 0.00 0.00 0.00 52 1002.5
20260504234207 26 184 14.5 30.6 0.00 0.00 0.00 52 1002.4
20260504233705 26 171 14.5 20.9 0.00 0.00 0.00 52 1002.5
20260504233140 26 175 14.5 33.8 0.00 0.00 0.00 51 1002.5
20260504232635 26 155 12.9 33.8 0.00 0.00 0.00 51 1002.5
20260504232134 26 149 14.5 27.4 0.00 0.00 0.00 50 1002.5
20260504231605 26 223 12.9 25.7 0.00 0.00 0.00 51 1002.6
20260504231104 26 250 9.7 24.1 0.00 0.00 0.00 51 1002.5
20260504230535 26 188 11.3 25.7 0.00 0.00 0.00 51 1002.4
20260504230255 26 147 11.3 25.7 0.00 0.00 0.00 50 1002.5
20260504225505 26 207 12.9 24.1 0.00 0.00 0.00 51 1002.4
20260504225004 26 196 16.1 29.0 0.00 0.00 0.00 50 1002.5
20260504224438 26 217 14.5 32.2 0.00 0.00 0.00 49 1002.4
20260504223909 26 212 12.9 30.6 0.00 0.00 0.00 50 1002.4
20260504223409 26 197 12.9 29.0 0.00 0.00 0.00 50 1002.4
20260504222839 26 155 12.9 25.7 0.00 0.00 0.00 49 1002.4
20260504222336 26 190 14.5 30.6 0.00 0.00 0.00 48 1002.4
20260504221834 26 190 14.5 32.2 0.00 0.00 0.00 48 1002.4
20260504221329 26 173 14.5 32.2 0.00 0.00 0.00 48 1002.4
20260504220827 26 152 16.1 32.2 0.00 0.00 0.00 47 1002.5
20260504220524 26 151 17.7 32.2 0.00 0.00 0.00 47 1002.5
20260504215753 27 153 19.3 29.0 0.00 0.00 0.00 47 1002.5
20260504215513 27 215 16.1 29.0 0.00 0.00 0.00 47 1002.5
20260504214723 27 163 16.1 35.4 0.00 0.00 0.00 47 1002.5
20260504214222 27 208 17.7 35.4 0.00 0.00 0.00 45 1002.5
20260504213717 27 165 14.5 30.6 0.00 0.00 0.00 46 1002.5
20260504213215 27 131 12.9 25.7 0.00 0.00 0.00 46 1002.6
20260504212712 27 171 14.5 25.7 0.00 0.00 0.00 45 1002.6
20260504212210 27 167 14.5 29.0 0.00 0.00 0.00 46 1002.6
20260504211657 27 186 14.5 29.0 0.00 0.00 0.00 45 1002.7
20260504211200 28 209 14.5 25.7 0.00 0.00 0.00 46 1002.7
20260504210631 28 169 12.9 24.1 0.00 0.00 0.00 44 1002.7
20260504210109 28 178 12.9 25.7 0.00 0.00 0.00 46 1002.7
20260504205539 28 178 12.9 25.7 0.00 0.00 0.00 46 1002.8
20260504205036 28 232 14.5 27.4 0.00 0.00 0.00 45 1002.8
20260504204536 28 212 16.1 27.4 0.00 0.00 0.00 45 1002.8
20260504204042 28 147 12.9 25.7 0.00 0.00 0.00 44 1003.0
20260504203527 28 232 8.0 20.9 0.00 0.00 0.00 45 1003.0
20260504203253 28 190 8.0 19.3 0.00 0.00 0.00 44 1003.1
20260504202457 28 171 14.5 29.0 0.00 0.00 0.00 45 1003.2
20260504201954 28 223 11.3 29.0 0.00 0.00 0.00 44 1003.3
20260504201451 28 245 8.0 20.9 0.00 0.00 0.00 47 1003.2
20260504200947 27 167 12.9 19.3 0.00 0.00 0.00 45 1003.5
20260504200706 28 163 11.3 24.1 0.00 0.00 0.00 44 1003.5
20260504200204 28 173 12.9 24.1 0.00 0.00 0.00 46 1003.5
20260504195437 27 203 12.9 24.1 0.00 0.00 0.00 46 1003.5
20260504194936 27 145 11.3 27.4 0.00 0.00 0.00 46 1003.6
20260504194410 27 167 11.3 27.4 0.00 0.00 0.00 46 1003.7
20260504193905 27 229 11.3 25.7 0.00 0.00 0.00 45 1003.9
20260504193404 27 238 11.3 20.9 0.00 0.00 0.00 44 1003.9
20260504192921 27 223 9.7 22.5 0.00 0.00 0.00 44 1004.1
20260504191831 27 193 8.0 19.3 0.00 0.00 0.00 47 1004.1
20260504191303 27 192 8.0 22.5 0.00 0.00 0.00 45 1004.1
20260504190803 27 227 11.3 29.0 0.00 0.00 0.00 45 1004.2
20260504190238 27 212 8.0 29.0 0.00 0.00 0.00 45 1004.3
20260504185711 26 204 9.7 22.5 0.00 0.00 0.00 44 1004.2
20260504185146 27 242 11.3 22.5 0.00 0.00 0.00 45 1004.3
20260504184623 26 257 8.0 19.3 0.00 0.00 0.00 47 1004.3
20260504184056 26 225 6.4 17.7 0.00 0.00 0.00 48 1004.4
20260504183555 26 221 9.7 22.5 0.00 0.00 0.00 47 1004.5
20260504183033 26 223 12.9 22.5 0.00 0.00 0.00 48 1004.4
20260504182514 26 235 12.9 27.4 0.00 0.00 0.00 48 1004.4
20260504182011 26 199 12.9 27.4 0.00 0.00 0.00 47 1004.7
20260504181450 26 213 8.0 16.1 0.00 0.00 0.00 46 1004.7
20260504180935 26 211 8.0 17.7 0.00 0.00 0.00 49 1004.8
20260504180434 26 224 8.0 16.1 0.00 0.00 0.00 48 1005.0
20260504175920 25 155 9.7 19.3 0.00 0.00 0.00 51 1004.8
20260504175357 25 216 11.3 22.5 0.00 0.00 0.00 49 1004.8
20260504174832 25 254 11.3 22.5 0.00 0.00 0.00 48 1004.9
20260504174333 25 221 14.5 25.7 0.00 0.00 0.00 49 1005.0
20260504174035 25 216 12.9 25.7 0.00 0.00 0.00 48 1005.1
20260504173311 25 231 11.3 24.1 0.00 0.00 0.00 51 1005.2
20260504172809 24 218 14.5 24.1 0.00 0.00 0.00 49 1005.1
20260504172308 24 227 12.9 24.1 0.00 0.00 0.00 51 1005.1
20260504171807 24 196 11.3 20.9 0.00 0.00 0.00 51 1005.0
20260504171306 23 154 12.9 24.1 0.00 0.00 0.00 50 1005.0
20260504170809 23 211 11.3 24.1 0.00 0.00 0.00 51 1005.2
20260504170245 23 195 12.9 25.7 0.00 0.00 0.00 53 1005.4
20260504160411 22 228 17.7 30.6 0.00 0.00 0.00 53 1005.1
20260504151012 21 236 20.9 37.0 0.00 0.00 0.00 56 1005.1
20260504150255 21 227 22.5 40.2 0.00 0.00 0.00 56 1005.2
20260504141044 20 222 17.7 33.8 0.00 0.00 0.00 59 1005.5
20260504140542 19 200 16.1 27.4 0.00 0.00 0.00 59 1005.5
20260504130806 18 213 16.1 29.0 0.00 0.00 0.00 61 1005.5
20260504130247 17 227 16.1 29.0 0.00 0.00 0.00 61 1005.5
20260504110714 17 221 16.1 27.4 0.00 0.00 0.00 59 1005.6
20260504110212 17 209 16.1 27.4 0.00 0.00 0.00 58 1005.6